Time,TemperatureF,DewpointF,PressureIn,WindDirection,WindDirectionDegrees,WindSpeedMPH,WindSpeedGustMPH,Humidity,HourlyPrecipIn,Conditions,Clouds,dailyrainin,SolarRadiationWatts/m^2,SoftwareType,DateUTC
2013-04-29 00:21:00,31.0,31.0,-100.00,SSW,208,4.0,9.0,100,0.00,,,0.49,0.000000,,2013-04-29 08:21:00,
2013-04-29 00:31:00,31.0,31.0,-100.00,SSW,208,4.0,9.0,100,0.00,,,0.49,0.000000,,2013-04-29 08:31:00,
2013-04-29 00:42:00,31.0,31.0,-100.00,SSW,208,4.0,9.0,100,0.00,,,0.49,0.000000,,2013-04-29 08:42:00,
2013-04-29 00:51:00,31.0,31.0,-100.00,SSW,208,4.0,9.0,100,0.00,,,0.49,0.000000,,2013-04-29 08:51:00,
2013-04-29 01:21:00,30.0,30.0,-100.00,SW,216,4.0,13.0,100,0.00,,,-99.99,0.000000,,2013-04-29 09:21:00,
2013-04-29 01:32:00,30.0,30.0,-100.00,SW,216,4.0,13.0,100,0.00,,,-99.99,0.000000,,2013-04-29 09:32:00,
2013-04-29 01:42:00,30.0,30.0,-100.00,SW,216,4.0,13.0,100,0.00,,,-99.99,0.000000,,2013-04-29 09:42:00,
2013-04-29 01:52:00,30.0,30.0,-100.00,SW,216,4.0,13.0,100,0.00,,,-99.99,0.000000,,2013-04-29 09:52:00,
2013-04-29 02:23:00,30.0,30.0,-100.00,WSW,243,3.0,11.0,100,0.00,,,0.41,0.000000,,2013-04-29 10:23:00,
2013-04-29 02:32:00,30.0,30.0,-100.00,WSW,243,3.0,11.0,100,0.00,,,0.41,0.000000,,2013-04-29 10:32:00,
2013-04-29 02:42:00,30.0,30.0,-100.00,WSW,243,3.0,11.0,100,0.00,,,0.41,0.000000,,2013-04-29 10:42:00,
2013-04-29 02:52:00,30.0,30.0,-100.00,WSW,243,3.0,11.0,100,0.00,,,0.41,0.000000,,2013-04-29 10:52:00,
2013-04-29 03:21:00,30.0,30.0,-100.00,South,172,3.0,11.0,100,0.00,,,-99.99,0.000000,,2013-04-29 11:21:00,
2013-04-29 03:32:00,30.0,30.0,-100.00,South,172,3.0,11.0,100,0.00,,,-99.99,0.000000,,2013-04-29 11:32:00,
2013-04-29 03:41:00,30.0,30.0,-100.00,South,172,3.0,11.0,100,0.00,,,-99.99,0.000000,,2013-04-29 11:41:00,
2013-04-29 03:52:00,30.0,30.0,-100.00,South,172,3.0,11.0,100,0.00,,,-99.99,0.000000,,2013-04-29 11:52:00,
2013-04-29 04:22:00,29.0,29.0,-100.00,ENE,62,2.0,14.0,100,0.00,,,-99.99,0.000000,,2013-04-29 12:22:00,
2013-04-29 04:31:00,29.0,29.0,-100.00,ENE,62,2.0,14.0,100,0.00,,,-99.99,0.000000,,2013-04-29 12:31:00,
2013-04-29 04:41:00,29.0,29.0,-100.00,ENE,62,2.0,14.0,100,0.00,,,-99.99,0.000000,,2013-04-29 12:41:00,
2013-04-29 04:51:00,29.0,29.0,-100.00,ENE,62,2.0,14.0,100,0.00,,,-99.99,0.000000,,2013-04-29 12:51:00,
2013-04-29 05:21:00,29.0,29.0,-100.00,SSE,168,4.0,13.0,100,0.00,,,0.32,0.000000,,2013-04-29 13:21:00,
2013-04-29 05:31:00,29.0,29.0,-100.00,SSE,168,4.0,13.0,100,0.00,,,0.32,0.000000,,2013-04-29 13:31:00,
2013-04-29 05:42:00,29.0,29.0,-100.00,SSE,168,4.0,13.0,100,0.00,,,0.32,0.000000,,2013-04-29 13:42:00,
2013-04-29 05:52:00,29.0,29.0,-100.00,SSE,168,4.0,13.0,100,0.00,,,0.32,0.000000,,2013-04-29 13:52:00,
2013-04-29 06:21:00,28.0,28.0,-100.00,SSE,147,4.0,15.0,100,0.00,,,0.31,2.000000,,2013-04-29 14:21:00,
2013-04-29 06:32:00,28.0,28.0,-100.00,SSE,147,4.0,15.0,100,0.00,,,0.31,2.000000,,2013-04-29 14:32:00,
2013-04-29 06:42:00,28.0,28.0,-100.00,SSE,147,4.0,15.0,100,0.00,,,0.31,2.000000,,2013-04-29 14:42:00,
2013-04-29 06:51:00,28.0,28.0,-100.00,SSE,147,4.0,15.0,100,0.00,,,0.31,2.000000,,2013-04-29 14:51:00,
2013-04-29 07:21:00,29.0,28.0,-100.00,SE,129,6.0,21.0,95,0.00,,,-99.99,26.000000,,2013-04-29 15:21:00,
2013-04-29 07:33:00,29.0,28.0,-100.00,SE,129,6.0,21.0,95,0.00,,,-99.99,26.000000,,2013-04-29 15:33:00,
2013-04-29 07:42:00,29.0,28.0,-100.00,SE,129,6.0,21.0,95,0.00,,,-99.99,26.000000,,2013-04-29 15:42:00,
2013-04-29 07:52:00,29.0,28.0,-100.00,SE,129,6.0,21.0,95,0.00,,,-99.99,26.000000,,2013-04-29 15:52:00,
2013-04-29 08:23:00,31.0,28.0,-100.00,SSE,153,7.0,19.0,90,0.00,,,0.27,78.000000,,2013-04-29 16:23:00,
2013-04-29 08:32:00,31.0,28.0,-100.00,SSE,153,7.0,19.0,90,0.00,,,0.27,78.000000,,2013-04-29 16:32:00,
2013-04-29 08:42:00,31.0,28.0,-100.00,SSE,153,7.0,19.0,90,0.00,,,0.27,78.000000,,2013-04-29 16:42:00,
2013-04-29 08:52:00,31.0,28.0,-100.00,SSE,153,7.0,19.0,90,0.00,,,0.27,78.000000,,2013-04-29 16:52:00,
2013-04-29 09:22:00,33.0,29.0,-100.00,WNW,302,3.0,15.0,86,0.00,,,-99.99,117.000000,,2013-04-29 17:22:00,
2013-04-29 09:32:00,33.0,29.0,-100.00,WNW,302,3.0,15.0,86,0.00,,,-99.99,117.000000,,2013-04-29 17:32:00,
2013-04-29 09:42:00,33.0,29.0,-100.00,WNW,302,3.0,15.0,86,0.00,,,-99.99,117.000000,,2013-04-29 17:42:00,
2013-04-29 09:52:00,33.0,29.0,-100.00,WNW,302,3.0,15.0,86,0.00,,,-99.99,117.000000,,2013-04-29 17:52:00,
2013-04-29 10:22:00,33.0,29.0,-100.00,SSE,153,5.0,14.0,84,0.00,,,0.22,140.000000,,2013-04-29 18:22:00,
2013-04-29 10:31:00,33.0,29.0,-100.00,SSE,153,5.0,14.0,84,0.00,,,0.22,140.000000,,2013-04-29 18:31:00,
2013-04-29 10:41:00,33.0,29.0,-100.00,SSE,153,5.0,14.0,84,0.00,,,0.22,140.000000,,2013-04-29 18:41:00,
2013-04-29 10:51:00,33.0,29.0,-100.00,SSE,153,5.0,14.0,84,0.00,,,0.22,140.000000,,2013-04-29 18:51:00,
2013-04-29 11:21:00,36.0,30.0,-100.00,ESE,116,3.0,12.0,80,0.00,,,0.21,222.000000,,2013-04-29 19:21:00,
2013-04-29 11:31:00,36.0,30.0,-100.00,ESE,116,3.0,12.0,80,0.00,,,0.21,222.000000,,2013-04-29 19:31:00,
2013-04-29 11:41:00,36.0,30.0,-100.00,ESE,116,3.0,12.0,80,0.00,,,0.21,222.000000,,2013-04-29 19:41:00,
2013-04-29 11:51:00,36.0,30.0,-100.00,ESE,116,3.0,12.0,80,0.00,,,0.21,222.000000,,2013-04-29 19:51:00,
2013-04-29 12:21:00,37.0,31.0,-100.00,SE,144,4.0,13.0,79,0.06,,,0.27,293.000000,,2013-04-29 20:21:00,
2013-04-29 12:32:00,37.0,31.0,-100.00,SE,144,4.0,13.0,79,0.06,,,0.27,293.000000,,2013-04-29 20:32:00,
2013-04-29 12:42:00,37.0,31.0,-100.00,SE,144,4.0,13.0,79,0.06,,,0.27,293.000000,,2013-04-29 20:42:00,
2013-04-29 12:52:00,37.0,31.0,-100.00,SE,144,4.0,13.0,79,0.06,,,0.27,293.000000,,2013-04-29 20:52:00,
2013-04-29 13:21:00,38.0,31.0,-100.00,SE,125,6.0,13.0,77,0.05,,,0.29,376.000000,,2013-04-29 21:21:00,
2013-04-29 13:33:00,38.0,31.0,-100.00,SE,125,6.0,13.0,77,0.05,,,0.29,376.000000,,2013-04-29 21:33:00,
2013-04-29 13:42:00,38.0,31.0,-100.00,SE,125,6.0,13.0,77,0.05,,,0.29,376.000000,,2013-04-29 21:42:00,
2013-04-29 13:53:00,38.0,31.0,-100.00,SE,125,6.0,13.0,77,0.05,,,0.29,376.000000,,2013-04-29 21:53:00,
2013-04-29 14:23:00,43.0,35.0,-100.00,ESE,122,7.0,16.0,73,0.01,,,0.29,479.000000,,2013-04-29 22:23:00,
2013-04-29 14:32:00,43.0,35.0,-100.00,ESE,122,7.0,16.0,73,0.01,,,0.29,479.000000,,2013-04-29 22:32:00,
2013-04-29 14:42:00,43.0,35.0,-100.00,ESE,122,7.0,16.0,73,0.01,,,0.29,479.000000,,2013-04-29 22:42:00,
2013-04-29 14:52:00,43.0,35.0,-100.00,ESE,122,7.0,16.0,73,0.01,,,0.29,479.000000,,2013-04-29 22:52:00,
2013-04-29 15:22:00,42.0,34.0,-100.00,SE,133,5.0,15.0,72,0.00,,,0.29,573.000000,,2013-04-29 23:22:00,
2013-04-29 15:32:00,42.0,34.0,-100.00,SE,133,5.0,15.0,72,0.00,,,0.29,573.000000,,2013-04-29 23:32:00,
2013-04-29 15:42:00,42.0,34.0,-100.00,SE,133,5.0,15.0,72,0.00,,,0.29,573.000000,,2013-04-29 23:42:00,
2013-04-29 15:52:00,42.0,34.0,-100.00,SE,133,5.0,15.0,72,0.00,,,0.29,573.000000,,2013-04-29 23:52:00,
2013-04-29 16:21:00,46.0,32.0,-100.00,SE,128,7.0,14.0,59,0.00,,,0.21,788.000000,,2013-04-30 00:21:00,
2013-04-29 18:21:00,40.0,24.0,-100.00,SSE,152,5.0,14.0,53,-99.99,,,0.13,407.000000,,2013-04-30 02:21:00,
2013-04-29 18:31:00,40.0,24.0,-100.00,SSE,152,5.0,14.0,53,-99.99,,,0.13,407.000000,,2013-04-30 02:31:00,
2013-04-29 18:41:00,40.0,24.0,-100.00,SSE,152,5.0,14.0,53,-99.99,,,0.13,407.000000,,2013-04-30 02:41:00,
2013-04-29 18:51:00,40.0,24.0,-100.00,SSE,152,5.0,14.0,53,-99.99,,,0.13,407.000000,,2013-04-30 02:51:00,
2013-04-29 19:21:00,36.0,21.0,-100.00,SSW,203,6.0,11.0,55,0.00,,,0.12,248.000000,,2013-04-30 03:21:00,
2013-04-29 19:33:00,36.0,21.0,-100.00,SSW,203,6.0,11.0,55,0.00,,,0.12,248.000000,,2013-04-30 03:33:00,
2013-04-29 19:42:00,36.0,21.0,-100.00,SSW,203,6.0,11.0,55,0.00,,,0.12,248.000000,,2013-04-30 03:42:00,
2013-04-29 19:52:00,36.0,21.0,-100.00,SSW,203,6.0,11.0,55,0.00,,,0.12,248.000000,,2013-04-30 03:52:00,
2013-04-29 22:21:00,30.0,19.0,-100.00,SSE,150,5.0,12.0,64,-99.99,,,0.12,0.000000,,2013-04-30 06:21:00,
2013-04-29 22:31:00,30.0,19.0,-100.00,SSE,150,5.0,12.0,64,-99.99,,,0.12,0.000000,,2013-04-30 06:31:00,
2013-04-29 22:41:00,30.0,19.0,-100.00,SSE,150,5.0,12.0,64,-99.99,,,0.12,0.000000,,2013-04-30 06:41:00,
2013-04-29 22:52:00,30.0,19.0,-100.00,SSE,150,5.0,12.0,64,-99.99,,,0.12,0.000000,,2013-04-30 06:52:00,
2013-04-29 23:21:00,29.0,19.0,-100.00,SW,222,1.0,13.0,65,0.00,,,0.12,0.000000,,2013-04-30 07:21:00,
2013-04-29 23:31:00,29.0,19.0,-100.00,SW,222,1.0,13.0,65,0.00,,,0.12,0.000000,,2013-04-30 07:31:00,
2013-04-29 23:41:00,29.0,19.0,-100.00,SW,222,1.0,13.0,65,0.00,,,0.12,0.000000,,2013-04-30 07:41:00,
2013-04-29 23:52:00,29.0,19.0,-100.00,SW,222,1.0,13.0,65,0.00,,,0.12,0.000000,,2013-04-30 07:52:00,